Weather reports worldwide

Advertisment
Shobdon, United Kingdom (3520): temperature & dewpoint: 18.11.2020 04:00:00 - 24.11.2020 04:00:00 (GMT)Shobdon, United Kingdom (3520): temperature -20cm & temperature -100cm: 18.11.2020 04:00:00 - 24.11.2020 04:00:00 (GMT)Shobdon, United Kingdom (3520): wind speed & gusts: 18.11.2020 04:00:00 - 24.11.2020 04:00:00 (GMT)Shobdon, United Kingdom (3520): wind direction: 18.11.2020 04:00:00 - 24.11.2020 04:00:00 (GMT)Shobdon, United Kingdom (3520): reduced air pressure: 18.11.2020 04:00:00 - 24.11.2020 04:00:00 (GMT)Shobdon, United Kingdom (3520): visibility: 18.11.2020 04:00:00 - 24.11.2020 04:00:00 (GMT)Shobdon, United Kingdom (3520): sunshine duration: 18.11.2020 04:00:00 - 24.11.2020 04:00:00 (GMT)Shobdon, United Kingdom (3520): precipitation: 18.11.2020 04:00:00 - 24.11.2020 04:00:00 (GMT)
Date & Time tt [°C] td [°C] tt -20cm [°C] tt -100cm [°C] ff [km/h] ff [kn] fx [km/h] fx [kn] dd ppp [hPa] vv [km] sd [min] rr [mm]
24.11.2020 04:00:00 10,0 8,8 - - 8 4 - - SSW 1017,5 45 0 0,0
24.11.2020 03:00:00 10,1 8,9 - - 13 7 - - SSW 1018,1 40 0 0,0
24.11.2020 02:00:00 10,0 8,3 - - 9 5 - - SSE 1018,5 75 0 0,0
24.11.2020 01:00:00 10,2 8,3 - - 9 5 - - WSW 1019,4 60 0 0,0
24.11.2020 00:00:00 11,1 8,5 - - 21 11 - - WSW 1019,9 75 - 0,0
23.11.2020 23:00:00 10,8 8,5 - - 16 9 - - SW 1020,3 75 0 0,0
23.11.2020 22:00:00 10,2 7,6 - - 11 6 - - WSW 1020,7 75 0 0,0
23.11.2020 21:00:00 10,7 7,8 - - 16 9 - - SW 1021,1 45 0 0,0
23.11.2020 20:00:00 9,8 7,4 - - 9 5 - - SE 1021,7 55 0 0,0
23.11.2020 19:00:00 9,7 7,3 - - 9 5 - - SSW 1021,9 2,1 0 0,0
23.11.2020 18:00:00 10,2 7,7 - - 18 10 - - SW 1022,5 18 0 0,0
23.11.2020 17:00:00 9,3 7,1 - - 5 3 - - S 1022,4 45 0 0,0
23.11.2020 16:00:00 9,4 7,3 - - 13 7 - - SSW 1022,9 45 0 0,0
23.11.2020 15:00:00 8,4 7,1 - - 2 1 - - WSW 1023,5 25 0 0,0
23.11.2020 14:00:00 7,7 6,4 - - 2 1 - - N 1024,1 17 12 0,0
23.11.2020 13:00:00 6,9 5,7 - - 4 2 - - ESE 1024,8 5 54 0,0
23.11.2020 12:00:00 4,4 3,7 - - 4 2 - - SE 1026,2 18 24 0,0
23.11.2020 11:00:00 2,2 2,2 - - 2 1 - - ENE 1027,1 2,2 36 0,2
23.11.2020 10:00:00 -0,4 -0,4 - - 0 0 - - N 1027,3 0,4 0 0,0
23.11.2020 09:00:00 -1,9 -2,0 8,7 10,7 2 1 - - E 1027,4 0,1 0 0,0
23.11.2020 08:00:00 -3,1 -3,5 - - 2 1 - - SE 1027,6 0,2 0 0,0
23.11.2020 07:00:00 -2,9 -3,3 - - 2 1 - - NE 1027,7 17 0 0,0
23.11.2020 06:00:00 -2,7 -3,1 - - 0 0 - - N 1027,4 17 0 0,0
23.11.2020 05:00:00 -2,0 -2,3 - - 2 1 - - NW 1027,5 12 0 0,0
23.11.2020 04:00:00 -1,3 -1,5 - - 4 2 - - SW 1027,5 15 0 0,0
23.11.2020 03:00:00 -1,5 -1,7 - - 2 1 - - W 1027,9 15 0 0,0
23.11.2020 02:00:00 -1,3 -1,5 - - 2 1 - - W 1028,1 0,5 0 0,0
23.11.2020 01:00:00 -1,3 -1,5 - - 4 2 - - NE 1028,2 15 0 0,0
23.11.2020 00:00:00 -1,4 -1,8 - - 2 1 - - SSW 1028,2 11 - 0,0
22.11.2020 23:00:00 -0,7 -1,0 - - 0 0 - - N 1028,0 13 0 0,0
22.11.2020 22:00:00 0,3 0,0 - - 5 3 - - E 1027,9 16 0 0,0
22.11.2020 21:00:00 0,5 0,1 - - 5 3 - - WSW 1028,0 18 0 0,0
22.11.2020 20:00:00 1,5 0,9 - - 5 3 - - W 1027,7 28 0 0,0
22.11.2020 19:00:00 1,7 1,0 - - 2 1 - - NW 1027,5 25 0 0,0
22.11.2020 18:00:00 2,3 1,2 - - 5 3 - - W 1027,3 30 0 0,0
22.11.2020 17:00:00 5,1 2,2 - - 5 3 - - WNW 1026,7 45 0 0,0
22.11.2020 16:00:00 8,9 3,6 - - 9 5 - - W 1026,2 50 30 0,0
22.11.2020 15:00:00 9,5 4,9 - - 11 6 - - W 1026,3 60 42 0,0
22.11.2020 14:00:00 9,6 5,3 - - 11 6 - - W 1026,4 50 54 0,0
22.11.2020 13:00:00 10,2 5,1 - - 9 5 - - W 1026,7 25 48 0,0
22.11.2020 12:00:00 9,0 6,1 - - 11 6 - - SW 1027,2 35 54 0,0
22.11.2020 11:00:00 8,1 6,0 - - 8 4 - - WSW 1027,5 15 36 0,0
22.11.2020 10:00:00 5,3 4,4 - - 4 2 - - W 1027,5 17 24 0,0
22.11.2020 09:00:00 3,2 3,1 9,5 10,7 5 3 - - W 1027,1 7 12 0,0
22.11.2020 08:00:00 2,9 2,6 - - 5 3 - - W 1026,6 13 0 0,0
22.11.2020 07:00:00 1,5 1,0 - - 5 3 - - W 1026,2 19 0 0,0
22.11.2020 06:00:00 2,4 1,9 - - 2 1 - - W 1026,1 26 0 0,0
22.11.2020 05:00:00 3,4 1,9 - - 4 2 - - SE 1025,9 26 0 0,0
22.11.2020 04:00:00 6,4 4,9 - - 9 5 - - W 1025,4 6 0 0,0
22.11.2020 03:00:00 4,4 4,0 - - 5 3 - - W 1025,2 30 0 0,0
22.11.2020 02:00:00 4,8 3,9 - - 2 1 - - ENE 1025,1 35 0 0,0
22.11.2020 01:00:00 6,0 5,6 - - 5 3 - - E 1024,9 50 0 0,0
22.11.2020 00:00:00 4,7 3,5 - - 4 2 - - SSE 1024,4 55 - 0,0
21.11.2020 23:00:00 8,7 6,1 - - 2 1 - - N 1024,3 75 0 0,0
21.11.2020 22:00:00 10,0 7,8 - - 9 5 - - W 1023,9 20 0 0,0
21.11.2020 21:00:00 10,8 9,1 - - 11 6 - - WNW 1023,5 13 0 0,2
21.11.2020 20:00:00 11,1 10,7 - - 13 7 - - WSW 1023,4 3,0 0 0,4
21.11.2020 19:00:00 11,1 10,6 - - 15 8 - - WSW 1023,1 2,9 0 0,0
21.11.2020 18:00:00 11,5 10,3 - - 18 10 - - WSW 1022,9 2,4 0 0,0
21.11.2020 17:00:00 11,5 10,1 - - 16 9 - - WSW 1022,9 3,1 0 0,0
21.11.2020 16:00:00 11,7 9,9 - - 21 11 - - WSW 1022,8 2,8 0 0,0
21.11.2020 15:00:00 11,7 9,9 - - 22 12 - - WSW 1022,8 2,6 0 0,0
21.11.2020 14:00:00 11,3 9,8 - - 21 11 - - WSW 1023,3 2,3 0 0,0
21.11.2020 13:00:00 12,3 9,5 - - 34 18 46 25 WSW 1023,3 3,5 12 0,0
21.11.2020 12:00:00 11,5 8,7 - - 34 18 50 27 WSW 1023,9 2,4 0 0,0
21.11.2020 11:00:00 11,5 8,6 - - 28 15 46 25 WSW 1024,1 2,4 6 0,0
21.11.2020 10:00:00 10,6 8,7 - - 24 13 - - SW 1024,4 2,3 6 0,0
21.11.2020 09:00:00 10,4 8,1 9,4 10,9 24 13 - - WSW 1024,4 1,8 0 0,0
21.11.2020 08:00:00 10,0 8,3 - - 21 11 - - SW 1024,2 3,4 0 0,0
21.11.2020 07:00:00 10,3 7,8 - - 26 14 46 25 WSW 1024,3 1,6 0 0,0
21.11.2020 06:00:00 10,6 7,3 - - 31 17 46 25 WSW 1024,1 2,0 0 0,0
21.11.2020 05:00:00 10,3 7,7 - - 29 16 - - WSW 1024,1 1,6 0 0,0
21.11.2020 04:00:00 10,6 7,4 - - 26 14 - - WSW 1024,5 1,7 0 0,0
21.11.2020 03:00:00 10,3 7,9 - - 26 14 46 25 WSW 1024,9 1,7 0 0,0
21.11.2020 02:00:00 10,4 8,3 - - 18 10 - - SW 1025,3 1,8 0 0,0
21.11.2020 01:00:00 10,6 7,8 - - 26 14 48 26 WSW 1025,5 1,7 0 0,0
21.11.2020 00:00:00 10,7 8,1 - - 28 15 - - WSW 1025,6 1,8 - 0,0
20.11.2020 23:00:00 10,8 8,5 - - 26 14 - - WSW 1026,0 1,7 0 0,0
20.11.2020 22:00:00 10,7 8,6 - - 24 13 - - SW 1026,2 3,4 0 0,0
20.11.2020 21:00:00 11,2 8,1 - - 21 11 - - SW 1026,6 3,2 0 0,0
20.11.2020 20:00:00 10,9 8,3 - - 24 13 - - WSW 1027,3 40 0 0,0
20.11.2020 19:00:00 11,3 8,8 - - 16 9 - - SW 1027,4 50 0 0,0
20.11.2020 18:00:00 11,2 9,6 - - 21 11 - - WSW 1027,7 7 0 0,0
20.11.2020 17:00:00 11,8 10,0 - - 18 10 - - WSW 1027,6 50 0 0,0
20.11.2020 16:00:00 11,5 10,2 - - 15 8 - - SW 1027,5 30 0 0,0
20.11.2020 15:00:00 11,3 9,8 - - 22 12 - - WSW 1027,6 75 0 0,0
20.11.2020 14:00:00 11,2 9,6 - - 18 10 - - SW 1028,1 75 0 0,0
20.11.2020 13:00:00 10,5 9,5 - - 18 10 - - SW 1029,0 65 0 0,2
20.11.2020 12:00:00 9,1 8,4 - - 8 4 - - S 1030,3 25 0 0,2
20.11.2020 11:00:00 8,3 7,9 - - 2 1 - - SW 1031,0 11 0 1,2
20.11.2020 10:00:00 8,2 7,9 - - 8 4 - - SSW 1031,1 13 0 0,8
20.11.2020 09:00:00 6,3 5,7 9,5 11,0 4 2 - - ESE 1031,6 11 0 0,2
20.11.2020 08:00:00 5,7 4,8 - - 4 2 - - NE 1031,9 30 0 0,0
20.11.2020 07:00:00 4,6 4,0 - - 4 2 - - ENE 1032,5 40 0 0,0
20.11.2020 06:00:00 4,0 3,7 - - 2 1 - - WSW 1032,7 30 0 0,0
20.11.2020 05:00:00 3,1 3,0 - - 4 2 - - NW 1033,3 22 0 0,0
20.11.2020 04:00:00 2,0 1,8 - - 0 0 - - N 1033,9 25 0 0,0
20.11.2020 03:00:00 1,3 0,8 - - 4 2 - - WNW 1034,3 25 0 0,0
20.11.2020 02:00:00 1,1 1,0 - - 4 2 - - W 1034,8 29 0 0,0
20.11.2020 01:00:00 -0,4 -1,0 - - 5 3 - - W 1035,5 12 0 0,0
20.11.2020 00:00:00 0,4 0,0 - - 8 4 - - W 1036,1 17 - 0,0
19.11.2020 23:00:00 0,9 -0,3 - - 4 2 - - WNW 1036,0 26 0 0,0
19.11.2020 22:00:00 3,4 2,0 - - 8 4 - - NW 1036,1 35 0 0,0
19.11.2020 21:00:00 2,8 2,2 - - 8 4 - - NW 1036,1 35 0 0,0
19.11.2020 20:00:00 0,6 -0,4 - - 2 1 - - W 1035,2 35 0 0,0
19.11.2020 19:00:00 2,5 0,5 - - 4 2 - - NW 1034,2 24 0 0,0
19.11.2020 18:00:00 5,2 2,3 - - 8 4 - - W 1033,5 40 0 0,0
19.11.2020 17:00:00 5,9 1,3 - - 11 6 - - WNW 1033,7 50 0 0,0
19.11.2020 16:00:00 7,2 2,0 - - 11 6 - - WNW 1033,3 50 24 0,0
19.11.2020 15:00:00 9,0 2,4 - - 11 6 - - WNW 1032,3 55 30 0,0
19.11.2020 14:00:00 8,9 3,6 - - 4 2 - - E 1030,4 70 42 0,0
19.11.2020 13:00:00 9,3 3,3 - - 9 5 - - NNW 1031,2 13 36 0,0
19.11.2020 12:00:00 8,6 4,7 - - 5 3 - - W 1030,6 55 24 0,0
19.11.2020 11:00:00 7,0 3,6 - - 13 7 - - N 1029,1 75 6 0,2
19.11.2020 10:00:00 8,1 4,4 - - 16 9 - - NW 1026,9 75 18 0,2
19.11.2020 09:00:00 8,5 4,4 10,0 11,0 16 9 - - NW 1025,2 70 0 0,0
19.11.2020 08:00:00 8,3 4,2 - - 16 9 - - NW 1023,0 55 0 0,0
19.11.2020 07:00:00 8,4 4,2 - - 26 14 52 28 NW 1021,0 55 0 0,0
19.11.2020 06:00:00 9,0 5,1 - - 26 14 54 29 WNW 1018,6 70 0 0,0
19.11.2020 05:00:00 8,6 4,9 - - 28 15 52 28 W 1017,8 75 0 0,0
19.11.2020 04:00:00 8,5 4,4 - - 28 15 59 32 W 1017,3 65 0 0,0
19.11.2020 03:00:00 8,5 3,9 - - 34 18 61 33 WNW 1015,5 45 0 0,0
19.11.2020 02:00:00 8,5 4,5 - - 28 15 57 31 W 1014,7 45 0 0,0
19.11.2020 01:00:00 8,4 5,7 - - 29 16 57 31 W 1014,4 40 0 0,0
19.11.2020 00:00:00 8,3 5,4 - - 31 17 50 27 WSW 1014,1 28 - 0,0
18.11.2020 23:00:00 8,4 5,1 - - 34 18 48 26 WSW 1014,4 19 0 0,0
18.11.2020 22:00:00 8,1 4,3 - - 28 15 46 25 W 1014,7 27 0 0,0
18.11.2020 21:00:00 7,9 4,1 - - 28 15 - - WSW 1014,5 24 0 0,0
18.11.2020 20:00:00 7,5 4,2 - - 22 12 - - WSW 1014,2 26 0 0,0
18.11.2020 19:00:00 7,1 3,7 - - 22 12 - - WSW 1013,9 27 0 0,0
18.11.2020 18:00:00 7,4 3,6 - - 26 14 - - WSW 1013,5 30 0 0,0
18.11.2020 17:00:00 8,4 3,8 - - 26 14 - - WSW 1013,2 30 0 0,0
18.11.2020 16:00:00 9,7 5,3 - - 21 11 48 26 W 1012,0 40 12 0,0
18.11.2020 15:00:00 10,4 7,2 - - 26 14 46 25 W 1011,2 70 0 0,2
18.11.2020 14:00:00 11,9 9,6 - - 22 12 48 26 W 1009,9 75 0 0,2
18.11.2020 13:00:00 13,5 12,1 - - 15 8 - - SW 1008,3 18 0 0,0
18.11.2020 12:00:00 13,2 11,6 - - 15 8 - - S 1009,0 6 0 0,0
18.11.2020 11:00:00 13,0 11,5 - - 21 11 - - S 1009,9 40 0 0,0
18.11.2020 10:00:00 12,5 11,4 - - 18 10 - - S 1010,5 5 0 0,4
18.11.2020 09:00:00 12,1 11,1 10,2 11,0 15 8 - - S 1011,3 13 0 0,0
18.11.2020 08:00:00 12,1 10,7 - - 18 10 - - S 1012,0 11 0 0,0
18.11.2020 07:00:00 12,2 10,1 - - 16 9 - - SSW 1012,4 19 0 0,0
18.11.2020 06:00:00 12,0 9,8 - - 16 9 - - S 1012,9 20 0 0,0
18.11.2020 05:00:00 11,8 9,5 - - 15 8 - - S 1014,0 22 0 0,0
18.11.2020 04:00:00 11,8 9,2 - - 15 8 - - S 1014,8 24 0 0,0

tt = temperature
td = dewpoint
tt -20cm = temperature -20cm
tt -100cm = temperature -100cm
ff = wind speed
fx = gusts
dd = wind direction
ppp = reduced air pressure
vv = visibility
sd = sunshine duration
rr = precipitation

Next stations